Location: Devargunta
(16.7631°N, 80.9077°E)
Time: 15:56:05
(UTC+00:00)

CCE 1 Rocket - Pass Details

Date: 19 January 2021
Orbit: 544 x 3982 km, 28.9° (Epoch: 25 February)

Event Time Altitude Azimuth Distance (km) Brightness Sun altitude
Rises 13:52:13 0° 294° (WNW) 4,349 8.7 -20.6°
Reaches altitude 10° 13:55:51 10° 293° (WNW) 2,902 7.7 -21.4°
Maximum altitude 14:02:13 79° 208° (SSW) 727 3.8 -22.9°
Enters shadow 14:03:16 53° 132° (SE) 823 3.9 -23.1°
